Regional Weather Roundup
Issued by NWS

Home | Current Version | Previous Version | Graphics & Text | Print | Product List | Glossary On
Versions: 1 2 3 4 5 6 7 8 9 10 11 12 13 14 15 16 17 18 19 20 21 22 23 24 25 26 27 28 29 30 31 32 33 34 35 36 37 38 39 40 41 42 43 44 45 46 47 48 49 50
000
ASUS43 KMKX 022321
RWRWI

WISCONSIN REGIONAL WEATHER ROUNDUP
NATIONAL WEATHER SERVICE MILWAUKEE/SULLIVAN WI
500 PM CST MON MAR 02 2015

NOTE: "FAIR" INDICATES FEW OR NO CLOUDS BELOW 12,000 FEET WITH NO
SIGNIFICANT WEATHER AND/OR OBSTRUCTIONS TO VISIBILITY.

WIZ001-002-006>008-014>016-023>028-030000-
NORTHWEST WISCONSIN

CITY           SKY/WX    TMP DP  RH WIND       PRES   REMARKS
SUPERIOR ARPT  CLEAR     28   6  40 S13G18    30.21F WCI  17
ASHLAND        CLEAR     27   2  34 S8        30.24F WCI  19
HAYWARD        CLEAR     23   2  40 SW10      30.23F WCI  12
SIREN          CLEAR     24   6  45 S8        30.24F WCI  15
CUMBERLAND     CLEAR     21   5  49 S10       30.23F WCI  10
RICE LAKE      CLEAR     22   5  46 S7        30.26F WCI  14
CHETEK         CLEAR     23   5  47 SE7       30.27F WCI  14
LADYSMITH      CLEAR     24   5  44 S9        30.27F WCI  14
EAU CLAIRE     FAIR      24   4  42 S9        30.29F WCI  14
MENOMONIE      PTCLDY    24   8  49 S6        30.27F WCI  17
NEW RICHMOND   PTCLDY    23   7  50 S12       30.26F WCI  11
OSCEOLA        PTCLDY    24   7  48 SE10      30.28F WCI  14
$$

WIZ003>005-009-010-017-018-030000-
NORTH CENTRAL WISCONSIN

CITY           SKY/WX    TMP DP  RH WIND       PRES   REMARKS
MANITOWISH WTR CLEAR     24   2  38 SW10      30.21F WCI  13
ARBOR VITAE    CLEAR     25   0  33 SW9       30.22F WCI  15
WOODRUFF       CLEAR     25   0  33 SW9       30.22F WCI  15
RHINELANDER    CLEAR     24   2  38 SW7       30.23F WCI  16
EAGLE RIVER    CLEAR     24  -3  29 SW8       30.22F WCI  16
LAND O LAKES   CLEAR     26  -2  28 SW7       30.22F WCI  19
PHILLIPS       CLEAR     23   1  38 SW10      30.22F WCI  13
TOMAHAWK       CLEAR     24   3  40 CALM      30.25F
MEDFORD        CLEAR     20   4  51 SE3       30.27F
MERRILL        CLEAR     23   4  44 SW7       30.28F WCI  15
$$

WIZ029-030-035-036-043>047-030000-
CENTRAL WISCONSIN

CITY           SKY/WX    TMP DP  RH WIND       PRES   REMARKS
WAUSAU         CLEAR     23   2  40 SW5       30.28F WCI  17
MOSINEE        CLEAR     21   7  53 SW3       30.30F
MARSHFIELD     CLEAR     22   7  52 E5        30.29F WCI  16
STEVENS POINT  CLEAR     22   3  44 S5        30.31F WCI  16
WAUPACA        CLEAR     29   1  29 CALM      30.34F
WAUTOMA        PTCLDY    28   5  37 S3        30.34F
WISC RAPIDS    PTCLDY    25   3  38 SW6       30.32F WCI  18
CAMP DOUGLAS   MOCLDY    27   5  39 S5        30.32F WCI  21
$$

WIZ011>013-019>022-031-037>040-048>050-030000-
NORTHEAST WISCONSIN

CITY           SKY/WX    TMP DP  RH WIND       PRES   REMARKS
ANTIGO         CLEAR     20   5  53 SW8       30.27F WCI  10
SHAWANO        CLEAR     29   7  39 SW5       30.33F WCI  24
OCONTO         CLEAR     26  10  50 S6        30.34F WCI  19
STURGEON BAY   CLEAR     25  12  58 S8        30.36F WCI  16
GREEN BAY      CLEAR     26  12  55 S7        30.35F WCI  18
MANITOWOC      CLEAR     25  15  66 S12       30.37F WCI  14
APPLETON       PTCLDY    25  10  54 SE7       30.34F WCI  17
CLINTONVILLE   CLEAR     25   7  46 SW5       30.32F WCI  19
OSHKOSH        PTCLDY    24  11  57 S6        30.35F WCI  17
$$

WIZ032>034-041-042-053>061-030000-
SOUTHWEST WISCONSIN

CITY           SKY/WX    TMP DP  RH WIND       PRES   REMARKS
LA CROSSE      MOCLDY    27   9  46 S5        30.32F WCI  22
SPARTA         MOCLDY    26   4  37 S5        30.32F WCI  21
VIROQUA        MOCLDY    25  10  53 CALM      30.28F
BOSCOBEL       CLOUDY    27  11  51 S5        30.35F WCI  22
PRAIRIE DU CHI CLOUDY    27  13  55 SE8       30.33F WCI  19
PLATTEVILLE    MOCLDY    23  15  71 E8        30.33F WCI  14
$$

WIZ056-057-062-063-064-067-068-030000-
SOUTH CENTRAL WISCONSIN

CITY           SKY/WX    TMP DP  RH WIND       PRES   REMARKS
REEDSBURG      MOCLDY    27   7  43 S5        30.32F WCI  21
BARABOO/DELLS  MOCLDY    26   8  46 CALM      30.32F
LONE ROCK      MOCLDY    25  12  58 S7        30.34F WCI  17
MINERAL POINT  CLOUDY    27  12  54 SE6       30.32F WCI  20
MADISON        CLOUDY    27  10  49 S8        30.35F WCI  19
MIDDLETON      CLOUDY    28  11  49 S8        30.35F WCI  20
WATERTOWN      MOCLDY    26  11  52 S7        30.36F WCI  18
MONROE         CLOUDY    25  18  74 SE5       30.33F WCI  19
JANESVILLE     NOT AVBL
$$

WIZ051-052-058>065-066-070>072-030000-
SOUTHEAST WISCONSIN

CITY           SKY/WX    TMP DP  RH WIND       PRES   REMARKS
MILWAUKEE      MOCLDY    26   9  48 S9        30.39F WCI  17
WAUKESHA       MOCLDY    27   7  43 S3        30.38F
MILWAUKEE/TIMM CLEAR     27  12  54 CALM      30.39F
RACINE         PTCLDY    25  12  58 S8        30.41F WCI  16
BURLINGTON     PTCLDY    25  10  54 SW7       30.38F WCI  17
KENOSHA        PTCLDY    25  14  63 SE7       30.39F WCI  17
FOND DU LAC    MOCLDY    27   8  44 S9        30.35F WCI  18
SHEBOYGAN      PTCLDY    24  13  62 S9        30.37F WCI  14
WEST BEND      MOCLDY    27   9  46 S3        30.36F
JUNEAU         MOCLDY    25   9  49 S7        30.36F WCI  18
$$

LSZ147-162-030000-
LAKE SUPERIOR

STATION/POSITION TIME  TEMP    WIND        PRES    WAVE
                       AIR SEA DIR/SP/G            HT/PER
                 (UTC) (F)     (DEG/KT/KT) (MB)    (FT/S)
DEVILS ISLAND    2300   26     280/  2/  2 1024.7F
PORT WING        2240   29     200/ 10/ 14 1023.7F
SAXON HARBOR     2200   31     230/  2/  9 1024.4F
$$

LMZ867-665-643>646-030000-
LAKE MICHIGAN

STATION/POSITION TIME  TEMP    WIND        PRES    WAVE
                       AIR SEA DIR/SP/G            HT/PER
                 (UTC) (F)     (DEG/KT/KT) (MB)    (FT/S)
NORTHPORT PIER   2300   25     170/  5/ 15 1027.4F
SISTER BAY       2243   29     190/ 12/ 14   N/A
KEWAUNEE LAKESHO 2200   26     250/  1/ 12 1028.1F
SHEBOYGAN LAKESH 2300   25     170/ 13/ 14 1030.0F
PORT WASHINGTON  2240   26     160/ 10/ 13 1029.8F
MILWAUKEE LAKESH 2300   26     150/ 14/ 16   N/A
KENOSHA   LAKESH 2300   26     150/  8/ 10 1029.1F
$$

TC  - TEMPERATURE IN CELSIUS
VSB - VISIBILITY IN STATUTE MILES
WCI - WIND CHILL INDEX
HX  - HEAT INDEX




USA.gov is the U.S. government's official web portal to all federal, state and local government web resources and services.